Location: Cincinnati Observatory Center
(39.1389°N, 84.4225°W)
Time: 09:18:26
(UTC-05:00)

Hubble Space Telescope - Visible Passes

Search period start: 27 November 2014 00:00
Search period end: 07 December 2014 00:00
Orbit: 546 x 549 km, 28.5° (Epoch: 26 November)

Date Brightness Start Highest point End Pass type
(mag) Time Alt. Az. Time Alt. Az. Time Alt. Az.
27 Nov 2.8 05:38:39 18° SSW 05:39:20 18° S 05:42:14 10° SE visible
28 Nov 2.9 05:31:36 17° S 05:31:40 17° S 05:34:27 10° SE visible
29 Nov 3.1 05:24:32 16° S 05:24:32 16° S 05:26:34 10° SSE visible
30 Nov 3.3 05:17:28 13° S 05:17:28 13° S 05:18:34 10° SSE visible
